This is the latest recevied weather packets stored in our database for station/object KC9MWQ-13. If no packets are shown the sender has not sent any weather packets the latest 10 day(s).
| Time | Temp. | Humidity | Pressure | Rain* | Wind** | Luminosity | Snow |
|---|---|---|---|---|---|---|---|
| 1778012383 | 9.44° C | 98% | 1009.5 hPa | 0 mm | - | 34 W/m² | - |
| 1778012080 | 9.44° C | 98% | 1009.5 hPa | 0 mm | - | 48 W/m² | - |
| 1778011778 | 9.44° C | 98% | 1009.1 hPa | 0 mm | - | 41 W/m² | - |
| 1778011476 | 9.44° C | 98% | 1009.3 hPa | 0 mm | - | 41 W/m² | - |
| 1778011171 | 9.44° C | 98% | 1009.4 hPa | 0 mm | - | 31 W/m² | - |
| 1778010868 | 9.44° C | 97% | 1009.2 hPa | 0 mm | - | 43 W/m² | - |
| 1778010566 | 9.44° C | 97% | 1009.2 hPa | 0 mm | - | 51 W/m² | - |
| 1778010263 | 9.44° C | 97% | 1009 hPa | 0 mm | - | 65 W/m² | - |
| 1778009963 | 9.44° C | 97% | 1009.3 hPa | 0 mm | - | 85 W/m² | - |
| 1778009661 | 9.44° C | 97% | 1009.3 hPa | 0 mm | - | 130 W/m² | - |
| 1778009359 | 9.44° C | 98% | 1009.5 hPa | 0 mm | - | 102 W/m² | - |
| 1778009057 | 9.44° C | 98% | 1009.5 hPa | 0 mm | - | 102 W/m² | - |
| 1778008754 | 9.44° C | 98% | 1009.5 hPa | 0 mm | - | 130 W/m² | - |
| 1778008453 | 8.89° C | 98% | 1009.6 hPa | 0 mm | - | 119 W/m² | - |
| 1778008149 | 9.44° C | 98% | 1009.8 hPa | 1.78 mm | - | 106 W/m² | - |
| 1778007844 | 9.44° C | 98% | 1009.6 hPa | 3.05 mm | - | 88 W/m² | - |
| 1778007539 | 9.44° C | 97% | 1009.8 hPa | 3.05 mm | - | 122 W/m² | - |
| 1778007236 | 9.44° C | 97% | 1009.6 hPa | 3.05 mm | - | 95 W/m² | - |
| 1778006933 | 9.44° C | 97% | 1010 hPa | 1.27 mm | - | 97 W/m² | - |
| 1778006630 | 9.44° C | 97% | 1009.9 hPa | 1.78 mm | - | 100 W/m² | - |
| 1778006327 | 9.44° C | 97% | 1009.9 hPa | 1.78 mm | - | 102 W/m² | - |
| 1778006024 | 9.44° C | 97% | 1010 hPa | 1.78 mm | - | 82 W/m² | - |
| 1778005720 | 10° C | 97% | 1009.7 hPa | 1.78 mm | - | 112 W/m² | - |
| 1778005417 | 10° C | 97% | 1010.1 hPa | 1.27 mm | - | 77 W/m² | - |
| 1778005114 | 10° C | 96% | 1009.7 hPa | 1.27 mm | - | 94 W/m² | - |
* Rain latest hour (hover to see other rain measurements)
** Current wind speed in m/s (hover to see current wind gust speed)